Location: Arborea
(39.7744°N, 8.5819°E)
Time: 02:42:30
(UTC+00:00)

Cosmos 2219 Rocket - Pass Details

Date: 24 October 2021
Orbit: 827 x 848 km, 71.0° (Epoch: 29 November)

Event Time Altitude Azimuth Distance (km) Brightness Sun altitude
Rises 19:52:25 0° 230° (SW) 3,354 5.7 -38.5°
Reaches altitude 10° 19:55:07 10° 241° (WSW) 2,426 5.0 -39.0°
Enters shadow 19:57:15 21° 257° (WSW) 1,802 4.3 -39.4°
